Year,Month,Day,Hour,Minute,Value (Times are PST for temperature in C)
2013,03,15,00,00,8.70
2013,03,15,00,01,8.70
2013,03,15,00,02,8.70
2013,03,15,00,03,8.70
2013,03,15,00,04,8.70
2013,03,15,00,05,8.60
2013,03,15,00,06,8.60
2013,03,15,00,07,8.60
2013,03,15,00,08,8.60
2013,03,15,00,09,8.60
2013,03,15,00,10,8.60
2013,03,15,00,11,8.60
2013,03,15,00,12,8.60
2013,03,15,00,13,8.60
2013,03,15,00,14,8.50
2013,03,15,00,15,8.50
2013,03,15,00,16,8.50
2013,03,15,00,17,8.50
2013,03,15,00,18,8.50
2013,03,15,00,19,8.50
2013,03,15,00,20,8.50
2013,03,15,00,21,8.50
2013,03,15,00,22,8.50
2013,03,15,00,23,8.50
2013,03,15,00,24,8.50
2013,03,15,00,25,8.50
2013,03,15,00,26,8.50
2013,03,15,00,27,8.50
2013,03,15,00,28,8.50
2013,03,15,00,29,8.50
2013,03,15,00,30,8.40
2013,03,15,00,31,8.40
2013,03,15,00,32,8.40
2013,03,15,00,33,8.40
2013,03,15,00,34,8.40
2013,03,15,00,35,8.40
2013,03,15,00,36,8.40
2013,03,15,00,37,8.40
2013,03,15,00,38,8.40
2013,03,15,00,39,8.40
2013,03,15,00,40,8.40
2013,03,15,00,41,8.40
2013,03,15,00,42,8.40
2013,03,15,00,43,8.40
2013,03,15,00,44,8.40
2013,03,15,00,45,8.40
2013,03,15,00,46,8.40
2013,03,15,00,47,8.40
2013,03,15,00,48,8.40
2013,03,15,00,49,8.40
2013,03,15,00,50,8.40
2013,03,15,00,51,8.40
2013,03,15,00,52,8.40
2013,03,15,00,53,8.40
2013,03,15,00,54,8.40
2013,03,15,00,55,8.40
2013,03,15,00,56,8.40
2013,03,15,00,57,8.40
2013,03,15,00,58,8.40
2013,03,15,00,59,8.40
2013,03,15,01,00,8.40
2013,03,15,01,01,8.40
2013,03,15,01,02,8.40
2013,03,15,01,03,8.40
2013,03,15,01,04,8.40
2013,03,15,01,05,8.40
2013,03,15,01,06,8.40
2013,03,15,01,07,8.40
2013,03,15,01,08,8.40
2013,03,15,01,09,8.40
2013,03,15,01,10,8.40
2013,03,15,01,11,8.40
2013,03,15,01,12,8.40
2013,03,15,01,13,8.40
2013,03,15,01,14,8.40
2013,03,15,01,15,8.40
2013,03,15,01,16,8.40
2013,03,15,01,17,8.40
2013,03,15,01,18,8.40
2013,03,15,01,19,8.40
2013,03,15,01,20,8.40
2013,03,15,01,21,8.40
2013,03,15,01,22,8.40
2013,03,15,01,23,8.40
2013,03,15,01,24,8.40
2013,03,15,01,25,8.40
2013,03,15,01,26,8.40
2013,03,15,01,27,8.40
2013,03,15,01,28,8.40
2013,03,15,01,29,8.40
2013,03,15,01,30,8.30
2013,03,15,01,31,8.30
2013,03,15,01,32,8.30
2013,03,15,01,33,8.30
2013,03,15,01,34,8.30
2013,03,15,01,35,8.30
2013,03,15,01,36,8.30
2013,03,15,01,37,8.30
2013,03,15,01,38,8.30
2013,03,15,01,39,8.30
2013,03,15,01,40,8.30
2013,03,15,01,41,8.30
2013,03,15,01,42,8.30
2013,03,15,01,43,8.30
2013,03,15,01,44,8.30
2013,03,15,01,45,8.30
2013,03,15,01,46,8.30
2013,03,15,01,47,8.30
2013,03,15,01,48,8.30
2013,03,15,01,49,8.30
2013,03,15,01,50,8.30
2013,03,15,01,51,8.30
2013,03,15,01,52,8.30
2013,03,15,01,53,8.30
2013,03,15,01,54,8.30
2013,03,15,01,55,8.30
2013,03,15,01,56,8.30
2013,03,15,01,57,8.30
2013,03,15,01,58,8.30
2013,03,15,01,59,8.30
2013,03,15,02,00,8.30
2013,03,15,02,01,8.30
2013,03,15,02,02,8.30
2013,03,15,02,03,8.30
2013,03,15,02,04,8.30
2013,03,15,02,05,8.30
2013,03,15,02,06,8.30
2013,03,15,02,07,8.30
2013,03,15,02,08,8.30
2013,03,15,02,09,8.30
2013,03,15,02,10,8.30
2013,03,15,02,11,8.30
2013,03,15,02,12,8.30
2013,03,15,02,13,8.30
2013,03,15,02,14,8.30
2013,03,15,02,15,8.30
2013,03,15,02,16,8.30
2013,03,15,02,17,8.30
2013,03,15,02,18,8.30
2013,03,15,02,19,8.30
2013,03,15,02,20,8.30
2013,03,15,02,21,8.30
2013,03,15,02,22,8.30
2013,03,15,02,23,8.30
2013,03,15,02,24,8.30
2013,03,15,02,25,8.30
2013,03,15,02,26,8.30
2013,03,15,02,27,8.30
2013,03,15,02,28,8.30
2013,03,15,02,29,8.30
2013,03,15,02,30,8.30
2013,03,15,02,31,8.30
2013,03,15,02,32,8.30
2013,03,15,02,33,8.30
2013,03,15,02,34,8.30
2013,03,15,02,35,8.30
2013,03,15,02,36,8.30
2013,03,15,02,37,8.30
2013,03,15,02,38,8.30
2013,03,15,02,39,8.30
2013,03,15,02,40,8.30
2013,03,15,02,41,8.30
2013,03,15,02,42,8.30
2013,03,15,02,43,8.30
2013,03,15,02,44,8.30
2013,03,15,02,45,8.30
2013,03,15,02,46,8.30
2013,03,15,02,47,8.30
2013,03,15,02,48,8.30
2013,03,15,02,49,8.30
2013,03,15,02,50,8.30
2013,03,15,02,51,8.30
2013,03,15,02,52,8.30
2013,03,15,02,53,8.30
2013,03,15,02,54,8.30
2013,03,15,02,55,8.30
2013,03,15,02,56,8.30
2013,03,15,02,57,8.30
2013,03,15,02,58,8.30
2013,03,15,02,59,8.30
2013,03,15,03,00,8.30
2013,03,15,03,01,8.30
2013,03,15,03,02,8.30
2013,03,15,03,03,8.30
2013,03,15,03,04,8.30
2013,03,15,03,05,8.30
2013,03,15,03,06,8.30
2013,03,15,03,07,8.30
2013,03,15,03,08,8.30
2013,03,15,03,09,8.30
2013,03,15,03,10,8.30
2013,03,15,03,11,8.30
2013,03,15,03,12,8.20
2013,03,15,03,13,8.20
2013,03,15,03,14,8.20
2013,03,15,03,15,8.20
2013,03,15,03,16,8.20
2013,03,15,03,17,8.20
2013,03,15,03,18,8.20
2013,03,15,03,19,8.20
2013,03,15,03,20,8.20
2013,03,15,03,21,8.20
2013,03,15,03,22,8.20
2013,03,15,03,23,8.20
2013,03,15,03,24,8.20
2013,03,15,03,25,8.20
2013,03,15,03,26,8.20
2013,03,15,03,27,8.20
2013,03,15,03,28,8.20
2013,03,15,03,29,8.20
2013,03,15,03,30,8.20
2013,03,15,03,31,8.20
2013,03,15,03,32,8.20
2013,03,15,03,33,8.10
2013,03,15,03,34,8.10
2013,03,15,03,35,8.10
2013,03,15,03,36,8.10
2013,03,15,03,37,8.10
2013,03,15,03,38,8.10
2013,03,15,03,39,8.10
2013,03,15,03,40,8.10
2013,03,15,03,41,8.10
2013,03,15,03,42,8.10
2013,03,15,03,43,8.10
2013,03,15,03,44,8.10
2013,03,15,03,45,8.10
2013,03,15,03,46,8.10
2013,03,15,11,18,8.20
2013,03,15,11,19,8.20
2013,03,15,11,20,8.30
2013,03,15,11,21,8.30
2013,03,15,11,22,8.40
2013,03,15,11,23,8.40
2013,03,15,11,24,8.40
2013,03,15,11,25,8.40
2013,03,15,11,26,8.40
2013,03,15,11,27,8.40
2013,03,15,11,28,8.50
2013,03,15,11,29,8.50
2013,03,15,11,30,8.60
2013,03,15,11,31,8.60
2013,03,15,11,32,8.70
2013,03,15,11,33,8.70
2013,03,15,11,34,8.70
2013,03,15,11,35,8.70
2013,03,15,11,36,8.80
2013,03,15,11,37,8.80
2013,03,15,11,38,8.80
2013,03,15,11,39,8.80
2013,03,15,11,40,8.70
2013,03,15,11,41,8.70
2013,03,15,11,42,8.70
2013,03,15,11,43,8.70
2013,03,15,11,44,8.60
2013,03,15,11,45,8.50
2013,03,15,11,46,8.50
2013,03,15,11,47,8.40
2013,03,15,11,48,8.40
2013,03,15,11,49,8.40
2013,03,15,11,50,8.40
2013,03,15,11,51,8.40
2013,03,15,11,52,8.40
2013,03,15,11,53,8.40
2013,03,15,11,54,8.40
2013,03,15,11,55,8.40
2013,03,15,11,56,8.40
2013,03,15,11,57,8.40
2013,03,15,11,58,8.40
2013,03,15,11,59,8.40
2013,03,15,12,00,8.40
2013,03,15,12,01,8.40
2013,03,15,12,02,8.40
2013,03,15,12,03,8.40
2013,03,15,12,04,8.40
2013,03,15,12,05,8.50
2013,03,15,12,06,8.50
2013,03,15,12,07,8.50
2013,03,15,12,08,8.60
2013,03,15,12,09,8.60
2013,03,15,12,10,8.60
2013,03,15,12,11,8.70
2013,03,15,12,12,8.70
2013,03,15,12,13,8.60
2013,03,15,12,14,8.60
2013,03,15,12,15,8.70
2013,03,15,12,16,8.60
2013,03,15,12,17,8.60
2013,03,15,12,18,8.60
2013,03,15,12,19,8.60
2013,03,15,12,20,8.50
2013,03,15,12,21,8.50
2013,03,15,12,22,8.50
2013,03,15,12,23,8.50
2013,03,15,12,24,8.50
2013,03,15,12,25,8.50
2013,03,15,12,26,8.50
2013,03,15,12,27,8.60
2013,03,15,12,28,8.60
2013,03,15,12,29,8.70
2013,03,15,12,30,8.70
2013,03,15,12,31,8.70
2013,03,15,12,32,8.70
2013,03,15,12,33,8.70
2013,03,15,12,34,8.70
2013,03,15,12,35,8.80
2013,03,15,12,36,8.80
2013,03,15,12,37,8.90
2013,03,15,12,38,9.00
2013,03,15,12,39,9.10
2013,03,15,12,40,9.20
2013,03,15,12,41,9.40
2013,03,15,12,42,9.40
2013,03,15,12,43,9.40
2013,03,15,12,44,9.40
2013,03,15,12,45,9.30
2013,03,15,12,46,9.20
2013,03,15,12,47,9.10
2013,03,15,12,48,9.00
2013,03,15,12,49,9.00
2013,03,15,12,50,9.00
2013,03,15,12,51,8.90
2013,03,15,12,52,8.90
2013,03,15,12,53,8.90
2013,03,15,12,54,8.90
2013,03,15,12,55,8.90
2013,03,15,12,56,8.90
2013,03,15,12,57,8.90
2013,03,15,12,58,8.90
2013,03,15,12,59,9.00
2013,03,15,13,00,9.10
2013,03,15,13,01,9.20
2013,03,15,13,02,9.30
2013,03,15,13,03,9.40
2013,03,15,13,04,9.50
2013,03,15,13,05,9.50
2013,03,15,13,06,9.60
2013,03,15,13,07,9.70
2013,03,15,13,08,9.70
2013,03,15,13,09,9.70
2013,03,15,13,10,9.70
2013,03,15,13,11,9.60
2013,03,15,13,12,9.60
2013,03,15,13,13,9.60
2013,03,15,13,14,9.70
2013,03,15,13,15,9.70
2013,03,15,13,16,9.70
2013,03,15,13,17,9.70
2013,03,15,13,18,9.70
2013,03,15,13,19,9.70
2013,03,15,13,20,9.80
2013,03,15,13,21,9.80
2013,03,15,13,22,9.90
2013,03,15,13,23,9.90
2013,03,15,13,24,9.90
2013,03,15,13,25,9.90
2013,03,15,13,26,9.90
2013,03,15,13,27,10.00
2013,03,15,13,28,10.10
2013,03,15,13,29,10.10
2013,03,15,13,30,10.10
2013,03,15,13,31,10.10
2013,03,15,13,32,10.10
2013,03,15,13,33,10.10
2013,03,15,13,34,10.10
2013,03,15,13,35,10.20
2013,03,15,13,36,10.20
2013,03,15,13,37,10.30
2013,03,15,13,38,10.30
2013,03,15,13,39,10.40
2013,03,15,13,40,10.50
2013,03,15,13,41,10.60
2013,03,15,13,42,10.70
2013,03,15,13,43,10.80
2013,03,15,13,44,10.90
2013,03,15,13,45,10.90
2013,03,15,13,46,10.90
2013,03,15,13,47,10.90
2013,03,15,13,48,11.00
2013,03,15,13,49,11.10
2013,03,15,13,50,11.10
2013,03,15,13,51,11.20
2013,03,15,13,52,11.20
2013,03,15,13,53,11.10
2013,03,15,13,54,11.10
2013,03,15,13,55,11.00
2013,03,15,13,56,10.90
2013,03,15,13,57,10.90
2013,03,15,13,58,10.90
2013,03,15,13,59,10.90
2013,03,15,14,00,10.90
2013,03,15,14,01,10.80
2013,03,15,14,02,10.80
2013,03,15,14,03,10.80
2013,03,15,14,04,10.70
2013,03,15,14,05,10.60
2013,03,15,14,06,10.60
2013,03,15,14,07,10.60
2013,03,15,14,08,10.70
2013,03,15,14,09,10.80
2013,03,15,14,10,10.90
2013,03,15,14,11,10.90
2013,03,15,14,12,11.10
2013,03,15,14,13,11.10
2013,03,15,14,14,11.10
2013,03,15,14,15,11.10
2013,03,15,14,16,11.10
2013,03,15,14,17,11.00
2013,03,15,14,18,10.90
2013,03,15,14,19,11.00
2013,03,15,14,20,11.10
2013,03,15,14,21,11.10
2013,03,15,14,22,11.10
2013,03,15,14,23,11.20
2013,03,15,14,24,11.30
2013,03,15,14,25,11.40
2013,03,15,14,26,11.50
2013,03,15,14,27,11.60
2013,03,15,14,28,11.70
2013,03,15,14,29,11.80
2013,03,15,14,30,11.80
2013,03,15,14,31,11.80
2013,03,15,14,32,11.90
2013,03,15,14,33,11.90
2013,03,15,14,34,12.00
2013,03,15,14,35,12.00
2013,03,15,14,36,12.10
2013,03,15,14,37,12.10
2013,03,15,14,38,12.10
2013,03,15,14,39,12.20
2013,03,15,14,40,12.20
2013,03,15,14,41,12.20
2013,03,15,14,42,12.30
2013,03,15,14,43,12.30
2013,03,15,14,44,12.30
2013,03,15,14,45,12.30
2013,03,15,14,46,12.40
2013,03,15,14,47,12.40
2013,03,15,14,48,12.40
2013,03,15,14,49,12.40
2013,03,15,14,50,12.40
2013,03,15,14,51,12.40
2013,03,15,14,52,12.40
2013,03,15,14,53,12.50
2013,03,15,14,54,12.50
2013,03,15,14,55,12.60
2013,03,15,14,56,12.70
2013,03,15,14,57,12.70
2013,03,15,14,58,12.70
2013,03,15,14,59,12.70
2013,03,15,15,00,12.60
2013,03,15,15,01,12.60
2013,03,15,15,02,12.60
2013,03,15,15,03,12.60
2013,03,15,15,04,12.60
2013,03,15,15,05,12.60
2013,03,15,15,06,12.70
2013,03,15,15,07,12.70
2013,03,15,15,08,12.70
2013,03,15,15,09,12.60
2013,03,15,15,10,12.60
2013,03,15,15,11,12.60
2013,03,15,15,12,12.60
2013,03,15,15,13,12.60
2013,03,15,15,14,12.70
2013,03,15,15,15,12.80
2013,03,15,15,16,12.70
2013,03,15,15,17,12.80
2013,03,15,15,18,12.80
2013,03,15,15,19,12.60
2013,03,15,15,20,12.50
2013,03,15,15,21,12.50
2013,03,15,15,22,12.60
2013,03,15,15,23,12.60
2013,03,15,15,24,12.70
2013,03,15,15,25,12.70
2013,03,15,15,26,12.80
2013,03,15,15,27,12.60
2013,03,15,15,28,12.50
2013,03,15,15,29,12.40
2013,03,15,15,30,12.30
2013,03,15,15,31,12.30
2013,03,15,15,32,12.30
2013,03,15,15,33,12.30
2013,03,15,15,34,12.20
2013,03,15,15,35,12.20
2013,03,15,15,36,12.20
2013,03,15,15,37,12.20
2013,03,15,15,38,12.10
2013,03,15,15,39,12.10
2013,03,15,15,40,12.00
2013,03,15,15,41,12.00
2013,03,15,15,42,12.00
2013,03,15,15,43,12.00
2013,03,15,15,44,12.00
2013,03,15,15,45,12.00
2013,03,15,15,46,12.00
2013,03,15,15,47,12.00
2013,03,15,15,48,12.00
2013,03,15,15,49,11.90
2013,03,15,15,50,11.80
2013,03,15,15,51,11.80
2013,03,15,15,52,11.80
2013,03,15,15,53,11.80
2013,03,15,15,54,11.90
2013,03,15,15,55,12.00
2013,03,15,15,56,12.00
2013,03,15,15,57,12.10
2013,03,15,15,58,12.20
2013,03,15,15,59,12.20
2013,03,15,16,00,12.20
2013,03,15,16,01,12.20
2013,03,15,16,02,12.20
2013,03,15,16,03,12.20
2013,03,15,16,04,12.10
2013,03,15,16,05,12.20
2013,03,15,16,06,12.10
2013,03,15,16,07,12.00
2013,03,15,16,08,11.90
2013,03,15,16,09,11.80
2013,03,15,16,10,11.80
2013,03,15,16,11,11.80
2013,03,15,16,12,11.80
2013,03,15,16,13,11.80
2013,03,15,16,14,11.80
2013,03,15,16,15,11.90
2013,03,15,16,16,11.90
2013,03,15,16,17,11.90
2013,03,15,16,18,12.00
2013,03,15,16,19,12.00
2013,03,15,16,20,12.00
2013,03,15,16,21,12.00
2013,03,15,16,22,12.00
2013,03,15,16,23,12.10
2013,03,15,16,24,12.10
2013,03,15,16,25,12.10
2013,03,15,16,26,12.00
2013,03,15,16,27,11.90
2013,03,15,16,28,11.90
2013,03,15,16,29,11.90
2013,03,15,16,30,11.80
2013,03,15,16,31,11.80
2013,03,15,16,32,11.70
2013,03,15,16,33,11.70
2013,03,15,16,34,11.60
2013,03,15,16,35,11.60
2013,03,15,16,36,11.70
2013,03,15,16,37,11.70
2013,03,15,16,38,11.70
2013,03,15,16,39,11.70
2013,03,15,16,40,11.70
2013,03,15,16,41,11.80
2013,03,15,16,42,11.80
2013,03,15,16,43,11.80
2013,03,15,16,44,11.80
2013,03,15,16,45,11.70
2013,03,15,16,46,11.70
2013,03,15,16,47,11.70
2013,03,15,16,48,11.70
2013,03,15,16,49,11.70
2013,03,15,16,50,11.70
2013,03,15,16,51,11.70
2013,03,15,16,52,11.70
2013,03,15,16,53,11.60
2013,03,15,16,54,11.60
2013,03,15,16,55,11.60
2013,03,15,16,56,11.60
2013,03,15,16,57,11.60
2013,03,15,16,58,11.60
2013,03,15,16,59,11.60
2013,03,15,17,00,11.60
2013,03,15,17,01,11.60
2013,03,15,17,02,11.60
2013,03,15,17,03,11.60
2013,03,15,17,04,11.60
2013,03,15,17,05,11.60
2013,03,15,17,06,11.60
2013,03,15,17,07,11.60
2013,03,15,17,08,11.60
2013,03,15,17,09,11.60
2013,03,15,17,10,11.60
2013,03,15,17,11,11.60
2013,03,15,17,12,11.60
2013,03,15,17,13,11.60
